Regional Weather Roundup
Issued by NWS Bismarck, ND

Home | Current Version | Previous Version | Text Only | Print | Product List | Glossary On
Versions: 1 2 3 4 5 6 7 8 9 10 11 12 13 14 15 16 17 18 19 20 21 22 23 24 25 26 27 28 29 30 31 32 33 34 35 36 37 38 39 40 41 42 43 44 45 46 47 48 49 50
000
ASUS43 KBIS 272210
RWRBIS

NWR BROADCAST TEXT
NATIONAL WEATHER SERVICE BISMARCK ND
500 PM CDT THU APR 27 2017

NOTE: "FAIR" INDICATES FEW OR NO CLOUDS BELOW 12,000 FEET WITH NO
SIGNIFICANT WEATHER AND/OR OBSTRUCTIONS TO VISIBILITY.


CITY           SKY/WX    TMP DP  RH WIND       PRES   REMARKS
WILLISTON      FAIR      54  18  24 SE8G17    29.73S
MINOT          FAIR      53  18  25 NE14G23   29.72F
MINOT AFB      FAIR      50  19  28 N12G21    29.72S
BISMARCK       FAIR      53  27  36 E13       29.71S
DICKINSON      FAIR      49  21  33 NE12G21   29.67S
GARRISON         N/A     50  18  28 NE8       29.72R
HETTINGER ARPT FAIR      50  25  37 VRB7      29.68S
JAMESTOWN      PTSUNNY   48  30  49 N18       29.66F
HAZEN          FAIR      50  19  29 CALM      29.73S
LINTON           N/A     50  30  46 N12       29.71S
MANDAN         FAIR      50  27  40 N10G16    29.70F
STANLEY        FAIR      48  10  21 E9        29.76S
TIOGA          FAIR      48   5  17 E8G17     29.75S
WATFORD CITY   FAIR      50  16  25 E12       29.72S
$$

CITY           SKY/WX    TMP DP  RH WIND       PRES   REMARKS
GRAND FORKS    CLOUDY    46  32  58 N16G24    29.65S
GRAND FORKS AF CLOUDY    44  31  59 N20G25    29.65F
DEVILS LAKE    PTSUNNY   48  28  46 N21G28    29.70R
FARGO          FAIR      39  28  64 NW8       29.67F
CAVALIER       MOCLDY    46  28  49 N24G31    29.66S
GRAFTON        MOCLDY    45  32  61 N16G25    29.67S
GWINNER        MOCLDY    45  34  65 MISG      29.68S
LANGDON        FAIR      46  27  46 N25G32    29.68S
ROLLA          FAIR      46  27  46 NE16G26   29.72S
$$

CITY           SKY/WX    TMP DP  RH WIND       PRES   REMARKS
ABERDEEN       PTSUNNY   48  29  47 VRB7      29.70F
MOBRIDGE       FAIR      55  25  31 N12       29.65F
BUFFALO          N/A     50  27  40 E8G18     29.59S
RAPID CITY     PTSUNNY   46  32  58 E8        29.63S
GLASGOW        FAIR      55  23  28 E8        29.68R
SIDNEY         FAIR      54  19  25 E14       29.71S
WOLF POINT     FAIR      56  20  24 E12G21    29.70S
GLENDIVE       PTSUNNY   53  23  31 SE10G17   29.68S
MILES CITY     CLOUDY    54  29  38 VRB6      29.64R
BAKER          FAIR      50  25  37 SE9       29.67R
$$

CITY           SKY/WX    TMP DP  RH WIND       PRES   REMARKS
BILLINGS       PTSUNNY   46  40  79 NE7       29.66R
GREAT FALLS    LGT RAIN  41  34  76 W17G29    29.73R
REGINA         MOSUNNY   50  12  22 E8        29.78S
ESTEVAN        MOSUNNY   52  12  20 E10       29.76S
$$





USA.gov is the U.S. government's official web portal to all federal, state and local government web resources and services.